Regional Weather Roundup
Issued by NWS

Home | Current Version | Previous Version | Text Only | Print | Product List | Glossary On
Versions: 1 2 3 4 5 6 7 8 9 10 11 12 13 14 15 16 17 18 19 20 21 22 23 24 25 26 27 28 29 30 31 32 33 34 35 36 37 38 39 40 41 42 43 44 45 46 47 48 49 50
000
ASUS45 KABQ 242010
RWRNM
NEW MEXICO REGIONAL WEATHER ROUNDUP
NATIONAL WEATHER SERVICE ALBUQUERQUE NM
100 PM MST FRI FEB 24 2017

NOTE: "FAIR" MEANS FEW OR NO CLOUDS BELOW 12,000 FEET AGL WITH NO
       SIGNIFICANT WEATHER OR OBSTRUCTIONS TO VISION.

      THIS PRODUCT IS RELEASED AS TWO VERSIONS.  ONE VERSION NEAR
      THE TOP OF THE HOUR CONTAINING PRELIMINARY DATA FROM ALBUQUERQUE
      AND OTHER STATIONS.  A FINAL VERSION WITH ADDITIONAL DATA IS
      ISSUED ABOUT 10 MINUTES AFTER THE HOUR.

NMZ501-503-504-510>518-242100-
NORTHWEST PLATEAU/NORTHCENTRAL MOUNTAINS

CITY           SKY/WX    TMP DP  RH WIND       PRES   REMARKS
FARMINGTON     PTSUNNY   36   0  21 W18G26    29.93F WCI  26
LOS ALAMOS     FAIR      32  -1  24 W14G25    29.90F WCI  22
SANTA FE       FAIR      39  -2  17 W26G37    29.90F WCI  28
TAOS           FAIR      34   3  27 W21G30    29.88S WCI  22
ANGEL FIRE     PTSUNNY   24   3  39 SW22G29   29.83F WCI   9

$$
NMZ402-403-502-505>509-242100-
WESTCENTRAL MOUNTAINS/SOUTHWEST MOUNTAINS

CITY           SKY/WX    TMP DP  RH WIND       PRES   REMARKS
GALLUP         FAIR      39   1  20 W21G30    29.98F WCI  29
GRANTS         FAIR      40  -2  17 NW23G32   29.96F WCI  29
SILVER CITY    FAIR      49   6  17 W20G25    30.03F

$$
NMZ407-409-411-412-242100-
SOUTHERN DESERTS

CITY           SKY/WX    TMP DP  RH WIND       PRES   REMARKS
DEMING         FAIR      54  10  17 W22G33    30.02F
LAS CRUCES     FAIR      55   6  13 W26G36    29.99F
HOLLOMAN AFB   FAIR      55   4  13 CALM      30.01F
ALAMOGORDO     FAIR      54   3  13 SW5       29.99F
T OR C         FAIR      53   2  12 VRB6      29.94F

$$
NMZ519>523-242100-
CENTRAL VALLEYS/CENTRAL HIGHLANDS

CITY           SKY/WX    TMP DP  RH WIND       PRES   REMARKS
ALBUQUERQUE    FAIR      44   0  16 W13G26    29.95F
DOUBLE EAGLE   MOSUNNY   43   3  19 W20       29.96F
MORIARTY ARPT  FAIR      43   0  16 W22G32    29.93F
CLINES CORNERS FAIR      37   0  21 NW22G38   29.89F WCI  26
BELEN          FAIR      47   1  15 NW15G25   29.97F
SOCORRO        FAIR      51   6  16 W9        29.95F

$$
NMZ524>526-539-540-242100-
SOUTHCENTRAL MOUNTAINS

CITY           SKY/WX    TMP DP  RH WIND       PRES   REMARKS
RUIDOSO        FAIR      45   0  15 W24G30      N/A

$$
NMZ527>531-242100-
NORTHEAST HIGHLANDS/NORTHEAST PLAINS

CITY           SKY/WX    TMP DP  RH WIND       PRES   REMARKS
LAS VEGAS      FAIR      38  -3  17 W10G24    29.84F WCI  31
RATON          FAIR      39   2  21 W17G23    29.81F WCI  30
CLAYTON        CLOUDY    36  17  46 N9        29.90F WCI  29

$$
NMZ532>537-242100-
EASTCENTRAL PLAINS

CITY           SKY/WX    TMP DP  RH WIND       PRES   REMARKS
TUCUMCARI      FAIR      49  16  26 E9        29.87F
CANNON AFB     NOT AVBL
CLOVIS AIRPORT FAIR      54  18  24 W24G33    29.89F

$$
NMZ028-029-538-242100-
SOUTHEAST PLAINS

CITY           SKY/WX    TMP DP  RH WIND       PRES   REMARKS
ROSWELL        FAIR      60   5  11 S8          N/A
ARTESIA        FAIR      59   9  13 VRB3      29.89F
CARLSBAD       FAIR      66  -3   6 W30G38    29.88F
HOBBS          SUNNY     59   5  11 SW8G18    29.92F


$$




USA.gov is the U.S. government's official web portal to all federal, state and local government web resources and services.